Erie, PA

5:01 PM EST on February 19, 2017 (GMT -0500)
Erie International

Weather History for KERI - April, 2013

Change the Weather History Date:

Friday, April 5, 2013

  Actual Average Record
Temperature  
Mean Temperature 37 °F 43 °F  
Max Temperature 41 °F 52 °F 82 °F (1910)
Min Temperature 32 °F 35 °F 11 °F (1881)
Degree Days  
Heating Degree Days 28 22  
Month to date heating degree days 151 114  
Since 1 July heating degree days 5240 5390  
Cooling Degree Days 0 0  
Month to date cooling degree days 0 0  
Year to date cooling degree days 0 1  
Moisture  
Dew Point 25 °F    
Average Humidity 55    
Maximum Humidity 76    
Minimum Humidity 33    
Precipitation  
Precipitation 0.00 in 0.12 in 2.95 in (1947)
Month to date precipitation 0.05 0.57  
Year to date precipitation 9.16 8.86  
Snow  
Snow 0.00 in 0.20 in - ()
Month to date snowfall T 1.1  
Since 1 July snowfall 104.7 98.8  
Snow Depth 0.00 in    
Sea Level Pressure  
Sea Level Pressure 30.06 in    
Wind  
Wind Speed 8 mph (WNW)    
Max Wind Speed 17 mph    
Max Gust Speed 24 mph    
Visibility 10 miles    
Events      
T = Trace of Precipitation, MM = Missing Value Source: NWS Daily Summary

Daily Weather History Graph

Daily Weather History Graph

Search for Another Location

Airport or City:

Trip Planner

Search our weather history database for the weather conditions in past years. The results will help you decide how hot, cold, wet, or windy it might be!

Date:

Astronomy

Apr. 05, 2013 Rise Set
Actual Time 6:56 AM EDT 7:51 PM EDT
Civil Twilight 6:27 AM EDT 8:19 PM EDT
Nautical Twilight 5:54 AM EDT 8:53 PM EDT
Astronomical Twilight 5:18 AM EDT 9:28 PM EDT
Moon 4:07 AM EDT (4/5) 3:08 PM EDT (4/5)
Length of Visible Light 13h 51m
Length of Day
12h 54m
Waning Crescent, 24% of the Moon is Illuminated
Apr 5
Waning Crescent
Apr 10
New
Apr 18
First Quarter
Apr 25
Full
May 2
Last Quarter

Hourly Weather History & Observations

Time (EDT) Temp. Windchill Dew Point Humidity Pressure Visibility Wind Dir Wind Speed Gust Speed Precip Events Conditions
12:51 AM 34.0 °F 28.8 °F 17.1 °F 50% 29.94 in 10.0 mi South 5.8 mph - N/A   Clear
1:51 AM 35.1 °F 30.1 °F 15.1 °F 44% 29.93 in 10.0 mi South 5.8 mph - N/A   Clear
2:51 AM 37.0 °F 32.4 °F 14.0 °F 39% 29.92 in 10.0 mi SSW 5.8 mph - N/A   Partly Cloudy
3:51 AM 39.0 °F 35.7 °F 12.9 °F 34% 29.93 in 10.0 mi West 4.6 mph - N/A   Scattered Clouds
4:51 AM 37.9 °F - 26.1 °F 62% 29.95 in 10.0 mi Calm Calm - N/A   Overcast
5:51 AM 37.0 °F 34.5 °F 26.1 °F 65% 29.96 in 10.0 mi NNW 3.5 mph - N/A   Overcast
6:51 AM 36.0 °F 33.3 °F 28.0 °F 73% 29.99 in 10.0 mi NW 3.5 mph - N/A   Overcast
7:51 AM 37.0 °F 34.5 °F 28.9 °F 73% 30.01 in 10.0 mi NNE 3.5 mph - N/A   Overcast
8:51 AM 37.9 °F 33.5 °F 30.0 °F 73% 30.04 in 10.0 mi NNW 5.8 mph - N/A   Mostly Cloudy
9:51 AM 39.9 °F 35.8 °F 28.9 °F 65% 30.06 in 10.0 mi NNW 5.8 mph - N/A   Clear
10:51 AM 39.0 °F 33.4 °F 28.0 °F 65% 30.07 in 10.0 mi WNW 8.1 mph - N/A   Clear
11:51 AM 39.0 °F 31.8 °F 30.0 °F 70% 30.09 in 10.0 mi West 11.5 mph - N/A   Mostly Cloudy
12:51 PM 39.9 °F 32.5 °F 30.0 °F 68% 30.09 in 10.0 mi West 12.7 mph - N/A   Partly Cloudy
1:51 PM 39.9 °F 32.1 °F 28.9 °F 65% 30.09 in 10.0 mi West 13.8 mph - N/A   Clear
2:51 PM 41.0 °F 34.3 °F 25.0 °F 53% 30.09 in 10.0 mi WNW 11.5 mph - N/A   Clear
3:51 PM 39.9 °F 32.5 °F 26.1 °F 58% 30.09 in 10.0 mi West 12.7 mph 20.7 mph N/A   Mostly Cloudy
4:51 PM 39.9 °F 32.5 °F 27.0 °F 60% 30.09 in 10.0 mi West 12.7 mph 18.4 mph N/A   Clear
5:51 PM 39.0 °F 31.0 °F 27.0 °F 62% 30.11 in 10.0 mi West 13.8 mph 21.9 mph N/A   Partly Cloudy
6:51 PM 37.9 °F 30.0 °F 27.0 °F 65% 30.13 in 10.0 mi WNW 12.7 mph - N/A   Clear
7:51 PM 36.0 °F 27.5 °F 25.0 °F 64% 30.15 in 10.0 mi WNW 12.7 mph 19.6 mph N/A   Clear
8:51 PM 35.1 °F 27.4 °F 23.0 °F 61% 30.17 in 10.0 mi WNW 10.4 mph - N/A   Clear
9:51 PM 35.1 °F 26.9 °F 23.0 °F 61% 30.19 in 10.0 mi NW 11.5 mph - N/A   Clear
10:51 PM 34.0 °F 26.6 °F 21.9 °F 61% 30.21 in 10.0 mi NNW 9.2 mph - N/A   Clear
11:51 PM 33.1 °F 27.7 °F 21.9 °F 64% 30.22 in 10.0 mi NNW 5.8 mph - N/A   Clear